Wind_Speed
24 24 22 20 20 21 21 19 17 16 17 18 17 16 16 15 14 14 13 12 12 12 12 12 12 12 11 12 12 12 11 11 12 12 13 14 14 15 15 15 16 17 18 18
26 26 24 23 23 23 22 21 20 19 20 20 20 19 17 17 16 16 16 15 15 14 14 14 14 13 13 14 14 14 13 12 12 12 13 14 15 15 16 16 16 16 18 18
26 26 26 26 25 24 24 23 22 21 22 22 21 20 20 19 19 18 18 18 18 17 16 17 16 15 15 15 15 15 15 14 14 14 14 15 15 16 16 16 17 17 18 19
27 28 28 27 27 25 25 25 24 24 23 23 23 22 21 20 20 20 20 20 19 19 19 19 18 18 18 17 16 17 17 17 17 17 16 16 17 17 17 17 17 17 18 19
29 28 28 30 29 26 26 27 26 25 25 24 24 23 22 21 21 21 21 21 21 21 21 21 21 20 19 19 19 19 19 18 18 18 19 18 19 19 19 19 19 19 20 21
33 30 28 30 30 27 27 29 27 26 26 26 25 25 24 23 22 22 22 22 22 22 22 22 22 22 22 22 22 22 22 21 20 21 21 21 21 21 21 22 22 22 23 24
34 32 31 34 32 28 30 30 28 27 27 27 27 26 26 24 24 24 23 23 24 24 24 24 24 24 25 24 24 24 23 23 22 22 23 23 22 23 23 23 23 24 25 26
34 33 33 36 33 32 31 30 30 29 29 28 28 27 27 26 26 25 24 25 25 25 25 26 26 26 26 26 26 26 25 24 24 24 24 24 24 24 24 25 25 26 26 27
36 36 36 35 33 32 32 31 31 30 30 29 29 29 28 27 27 26 25 25 25 25 26 26 27 27 27 27 27 26 26 26 26 27 26 26 27 27 27 27 27 27 27 27
35 35 34 33 32 32 31 31 31 30 30 30 30 29 29 28 27 27 26 25 25 26 26 26 26 26 26 26 26 26 27 27 27 27 27 27 27 27 28 27 27 27 27 28
33 33 32 32 31 31 30 30 30 30 30 29 29 28 27 27 26 27 27 27 27 27 26 26 26 26 26 26 26 27 27 27 27 27 27 27 27 26 26 27 27 27 27 27
32 31 31 30 29 29 29 29 29 29 29 28 28 27 26 26 26 27 27 27 27 27 27 27 26 26 26 25 25 25 25 25 25 25 25 26 26 25 25 25 26 26 26 28
31 30 30 29 29 29 29 29 29 29 28 28 27 27 26 26 26 25 26 26 26 26 25 25 25 25 24 24 23 23 23 24 24 23 23 24 24 24 25 25 25 25 25 27
30 30 29 29 29 29 29 29 29 28 27 27 27 26 25 25 25 24 24 24 24 24 24 24 23 23 23 23 22 22 22 22 22 21 21 21 22 23 23 24 24 23 23 25
29 29 29 28 28 28 28 28 27 27 26 24 25 25 25 24 24 23 23 22 22 22 22 22 22 21 21 21 21 21 21 20 20 20 19 20 21 21 22 21 22 22 23 25
28 28 28 27 27 27 26 25 25 25 24 24 24 24 24 23 22 21 21 21 20 20 20 20 20 19 19 19 19 18 18 18 18 18 19 19 18 19 20 20 21 22 23 24
27 26 26 25 25 25 25 24 23 23 23 23 22 21 20 20 19 18 18 18 18 18 18 18 18 17 18 18 18 17 17 17 17 17 17 18 18 18 20 21 22 22 23 24
25 25 25 24 23 23 23 22 22 22 22 21 21 20 19 18 18 17 17 17 17 16 16 16 16 16 16 16 15 15 15 16 16 15 16 17 17 18 19 20 21 22 22 24
25 24 23 23 23 22 22 21 21 21 21 20 20 19 18 17 17 16 16 16 16 15 14 14 13 14 14 13 14 14 14 15 15 15 16 16 17 18 19 20 21 22 23 24
23 23 23 21 21 21 21 20 20 20 20 19 18 17 17 16 15 14 13 13 13 12 12 12 12 11 12 12 13 13 13 13 14 14 15 16 17 18 20 21 22 23 24 24
22 21 21 20 20 20 20 19 18 18 17 17 17 16 15 14 14 13 12 12 12 12 12 13 12 12 13 13 13 13 13 14 15 16 17 18 19 19 20 22 22 23 23 23
20 19 19 19 18 18 18 18 17 17 16 15 15 15 14 13 13 12 12 12 12 12 13 13 13 13 13 13 14 14 15 16 17 17 18 19 20 21 22 23 23 23 23 23
18 18 18 18 18 17 17 16 16 15 15 15 15 14 14 13 12 11 11 11 12 12 12 12 13 13 14 14 15 16 17 18 18 19 20 20 21 22 23 23 23 23 22 22
16 17 16 17 16 16 15 15 15 15 14 14 13 13 13 12 11 11 11 11 11 11 12 12 13 14 15 16 17 17 18 20 20 21 22 22 23 23 23 23 22 22 22 21
16 15 15 14 15 15 14 13 13 13 13 12 11 11 11 11 11 11 11 12 12 12 13 14 15 16 17 18 19 19 20 21 21 22 22 22 23 23 22 22 22 21 21 21
14 13 13 13 13 13 12 11 11 11 10 10 10 10 10 10 10 11 12 12 13 14 15 16 17 18 18 19 20 20 21 21 22 22 22 23 23 22 22 22 21 21 21 20
14 13 13 12 11 11 10 10 9 9 8 8 8 9 9 10 10 11 12 13 15 16 17 18 19 19 20 20 20 21 21 22 22 23 23 23 22 22 22 22 21 21 20 19
Wind_Direction
228 231 238 240 239 240 241 238 243 254 257 261 269 273 274 274 273 272 273 274 276 274 274 278 282 285 286 288 291 291 288 286 282 276 266 259 256 256 257 257 257 252 250 247
234 236 237 238 237 240 242 243 247 251 258 263 269 272 273 273 272 273 272 273 275 277 274 274 277 279 283 287 287 285 281 279 279 278 273 267 263 263 263 262 259 257 253 251
235 237 238 240 239 239 243 247 251 256 261 267 270 272 272 272 272 273 272 270 273 273 275 273 272 274 277 283 282 280 279 276 275 272 272 268 264 267 265 262 261 258 257 256
234 236 238 239 239 240 243 247 252 256 262 267 269 270 270 270 271 272 271 271 272 271 271 269 269 271 274 277 278 277 277 276 274 270 269 268 265 265 265 265 263 262 263 264
235 238 241 242 242 242 245 249 252 257 261 266 268 270 268 269 270 270 270 269 270 268 267 266 265 268 272 275 275 275 274 273 272 272 269 267 267 266 264 264 264 267 267 267
237 235 238 246 245 244 247 251 252 256 261 264 267 268 268 268 268 268 268 267 267 266 264 264 263 266 270 273 274 274 274 271 269 271 272 269 267 265 264 264 266 267 268 271
238 239 240 244 247 246 247 251 253 256 260 262 264 265 265 265 266 267 267 266 266 265 264 264 263 265 268 270 273 274 271 269 268 271 272 269 269 268 267 267 267 268 270 272
237 239 241 246 248 248 250 253 255 257 259 261 262 262 262 263 266 267 267 266 265 264 264 263 263 265 267 268 270 272 270 268 268 269 271 270 271 270 269 269 270 271 271 271
237 239 242 246 248 250 251 252 253 255 257 259 260 260 261 262 264 265 266 267 265 263 263 264 263 264 266 267 269 268 268 268 268 270 272 271 271 271 271 272 273 271 273 275
239 242 245 247 249 250 250 250 251 253 254 256 257 257 259 261 262 262 264 265 264 263 264 264 265 265 265 266 267 267 267 267 267 270 272 272 269 269 268 270 272 273 274 275
239 242 245 247 248 248 249 249 250 252 253 254 255 255 257 259 260 261 262 264 264 263 263 264 265 266 266 266 266 266 266 267 268 270 270 270 269 268 267 269 273 276 277 278
238 240 243 244 245 246 247 248 249 250 252 253 253 253 256 259 260 260 261 263 264 263 262 263 263 264 266 266 266 267 267 268 270 270 268 269 269 268 270 274 275 275 276 277
238 239 241 243 244 244 246 247 249 250 250 251 251 252 255 258 258 258 260 262 262 262 261 261 262 263 265 266 266 267 267 268 269 269 269 269 267 268 272 274 273 274 276 279
236 237 239 241 242 243 245 246 248 249 250 250 249 251 253 255 256 257 259 262 261 260 260 261 261 262 264 264 265 265 265 264 265 267 268 267 267 270 272 271 272 277 281 285
236 236 237 238 240 241 243 245 247 247 248 247 247 248 250 253 255 256 258 259 259 258 257 257 259 262 263 262 262 261 262 263 264 266 267 268 267 269 271 275 278 283 285 287
237 237 237 237 239 240 241 242 243 243 243 243 243 246 248 249 251 253 254 255 256 257 258 258 258 260 260 259 258 258 259 260 262 264 268 270 272 275 278 282 285 287 288 290
233 234 234 235 237 237 237 239 239 238 237 237 240 243 245 246 248 250 252 251 251 254 255 256 255 255 255 255 255 257 261 263 266 268 269 272 276 281 283 284 286 287 291 297
230 230 231 231 231 232 233 234 234 234 234 237 240 242 243 244 243 245 247 247 247 247 249 251 252 253 255 256 255 257 262 265 269 273 275 276 279 283 286 289 291 293 298 301
225 227 227 227 227 228 227 227 228 230 232 235 237 239 240 240 241 243 245 245 242 241 242 245 250 253 257 260 261 264 266 268 273 276 278 281 285 288 290 292 294 298 302 303
219 221 222 223 223 221 221 222 224 228 230 231 232 233 235 234 235 237 236 237 236 237 240 244 249 254 258 263 267 268 269 273 277 281 284 286 289 292 293 295 298 301 303 304
212 214 215 214 214 214 214 216 219 221 222 224 225 227 227 227 227 228 230 232 233 237 242 246 253 259 265 267 270 272 274 277 281 285 288 291 293 296 297 299 300 301 302 304
205 206 205 205 206 206 206 209 212 212 213 214 216 216 216 218 222 227 231 236 241 245 249 254 260 263 267 272 276 278 281 284 287 289 291 293 295 297 299 300 300 301 302 303
196 197 198 199 199 199 200 201 202 201 203 205 207 209 215 221 226 230 236 243 246 250 256 261 265 269 274 279 282 284 286 288 290 292 293 294 296 298 299 299 300 300 300 301
188 188 188 188 188 188 191 195 197 198 202 206 208 212 217 222 228 235 243 248 252 259 265 269 273 277 280 282 285 288 290 291 292 293 294 295 296 298 298 298 298 298 299 299
178 179 181 183 183 183 184 187 191 195 198 202 209 217 224 229 237 244 251 256 261 268 275 280 283 284 285 286 288 290 292 292 293 294 295 295 296 297 297 297 296 297 296 297
171 173 174 174 175 177 181 186 191 194 199 206 214 224 231 240 247 253 258 265 272 277 282 285 287 287 287 289 291 292 293 293 294 294 294 295 295 295 295 295 294 294 294 294
168 170 169 170 173 175 180 184 187 194 204 215 227 237 244 250 258 266 273 278 282 285 288 290 290 291 292 293 294 294 295 295 294 294 294 294 294 294 293 292 292 292 291 290
Height
5823 5825 5827 5830 5832 5834 5837 5840 5843 5844 5844 5842 5842 5842 5842 5841 5841 5840 5840 5839 5839 5838 5838 5837 5837 5836 5836 5835 5833 5832 5831 5830 5830 5830 5830 5831 5831 5831 5832 5833 5833 5833 5833 5834
5816 5819 5821 5824 5826 5829 5831 5834 5836 5838 5838 5836 5837 5836 5836 5836 5836 5836 5835 5835 5835 5834 5834 5834 5834 5833 5833 5832 5830 5829 5828 5828 5828 5828 5827 5828 5828 5828 5829 5829 5829 5829 5829 5830
5810 5812 5815 5817 5820 5823 5825 5827 5830 5831 5831 5830 5831 5831 5831 5830 5830 5830 5830 5830 5830 5830 5830 5830 5829 5829 5829 5828 5827 5826 5826 5825 5825 5825 5825 5825 5824 5825 5825 5825 5825 5825 5825 5826
5803 5806 5808 5813 5813 5816 5819 5821 5822 5823 5824 5824 5824 5824 5824 5824 5824 5824 5824 5824 5824 5825 5825 5825 5824 5824 5824 5823 5823 5822 5822 5822 5821 5821 5821 5820 5820 5820 5821 5821 5821 5821 5822 5822
5795 5798 5801 5803 5806 5809 5812 5814 5815 5816 5817 5817 5817 5817 5818 5818 5818 5818 5818 5818 5819 5819 5819 5819 5819 5819 5819 5818 5818 5818 5818 5817 5817 5817 5816 5816 5816 5816 5816 5816 5816 5816 5816 5816
5787 5791 5795 5797 5798 5802 5805 5806 5808 5809 5810 5810 5811 5811 5812 5811 5811 5812 5812 5812 5812 5813 5813 5813 5813 5813 5813 5813 5813 5812 5812 5812 5812 5812 5812 5811 5811 5811 5811 5811 5811 5811 5811 5811
5778 5782 5786 5786 5789 5794 5798 5798 5800 5801 5802 5803 5803 5804 5805 5805 5805 5805 5805 5805 5806 5806 5806 5806 5807 5807 5807 5806 5807 5806 5806 5806 5806 5806 5806 5806 5805 5805 5805 5805 5805 5805 5804 5804
5770 5774 5778 5777 5781 5785 5787 5789 5791 5792 5794 5795 5796 5796 5797 5797 5798 5798 5798 5799 5799 5799 5799 5799 5800 5800 5799 5799 5799 5800 5800 5800 5800 5800 5800 5799 5799 5799 5799 5799 5798 5798 5798 5797
5761 5765 5766 5769 5772 5775 5778 5780 5782 5784 5785 5787 5787 5788 5789 5790 5791 5791 5791 5791 5792 5792 5792 5792 5792 5792 5793 5792 5792 5793 5793 5793 5793 5793 5793 5792 5792 5792 5792 5792 5791 5791 5791 5790
5752 5754 5757 5760 5763 5766 5769 5771 5773 5775 5777 5778 5779 5780 5781 5782 5783 5783 5784 5784 5784 5784 5784 5785 5785 5785 5785 5785 5785 5785 5786 5786 5786 5786 5785 5785 5785 5785 5785 5785 5784 5783 5783 5782
5743 5746 5749 5751 5754 5757 5760 5762 5764 5766 5768 5770 5771 5772 5773 5774 5775 5775 5776 5776 5776 5777 5777 5777 5777 5778 5778 5778 5778 5778 5778 5778 5778 5778 5778 5778 5778 5777 5777 5777 5777 5776 5775 5774
5734 5738 5741 5744 5746 5749 5752 5754 5756 5758 5760 5761 5763 5765 5766 5766 5767 5768 5768 5768 5769 5769 5769 5770 5770 5770 5771 5771 5770 5770 5771 5771 5771 5771 5771 5771 5771 5770 5770 5769 5769 5769 5768 5767
5726 5730 5732 5735 5738 5741 5743 5746 5748 5750 5752 5753 5755 5757 5758 5759 5759 5760 5761 5761 5761 5762 5762 5763 5763 5763 5764 5764 5764 5763 5764 5764 5764 5764 5764 5764 5764 5764 5763 5763 5762 5762 5761 5760
5718 5721 5725 5727 5730 5732 5735 5738 5740 5742 5744 5745 5747 5749 5750 5751 5752 5753 5754 5754 5754 5755 5755 5756 5756 5757 5757 5757 5757 5757 5757 5758 5758 5758 5758 5758 5758 5757 5757 5756 5756 5755 5754 5752
5710 5713 5716 5719 5722 5724 5727 5730 5732 5734 5736 5738 5740 5741 5743 5744 5745 5746 5747 5747 5747 5748 5749 5749 5750 5750 5751 5751 5751 5752 5752 5752 5752 5752 5752 5752 5751 5751 5751 5750 5749 5748 5747 5745
5702 5705 5708 5712 5715 5717 5720 5722 5725 5727 5729 5731 5733 5735 5736 5738 5739 5739 5740 5741 5741 5742 5743 5743 5744 5744 5745 5745 5746 5746 5746 5747 5747 5747 5747 5746 5745 5745 5744 5744 5742 5741 5740 5738
5695 5698 5701 5705 5708 5710 5713 5716 5718 5720 5722 5725 5727 5729 5730 5732 5733 5734 5734 5735 5736 5737 5737 5738 5739 5739 5740 5740 5741 5741 5741 5741 5741 5741 5741 5740 5740 5739 5738 5737 5736 5735 5733 5731
5688 5691 5695 5698 5701 5704 5707 5709 5712 5714 5717 5719 5721 5723 5725 5726 5727 5728 5729 5730 5731 5732 5733 5733 5734 5735 5735 5735 5736 5736 5736 5736 5736 5736 5736 5735 5734 5734 5733 5731 5730 5728 5726 5724
5681 5685 5688 5692 5695 5698 5701 5704 5706 5709 5711 5714 5716 5718 5719 5721 5722 5723 5724 5725 5726 5727 5728 5729 5730 5731 5731 5731 5731 5732 5732 5731 5731 5731 5730 5730 5729 5728 5727 5725 5723 5721 5719 5717
5676 5680 5683 5686 5690 5693 5696 5699 5701 5704 5707 5709 5711 5713 5715 5717 5718 5719 5720 5722 5723 5724 5725 5725 5726 5727 5727 5727 5727 5727 5727 5727 5726 5726 5725 5724 5723 5722 5720 5718 5716 5714 5712 5710
5672 5675 5678 5682 5685 5688 5691 5695 5697 5700 5702 5705 5707 5709 5711 5713 5714 5716 5717 5718 5719 5720 5721 5722 5722 5723 5723 5723 5723 5722 5722 5722 5721 5720 5719 5718 5717 5715 5714 5712 5710 5708 5705 5703
5669 5672 5675 5678 5682 5685 5688 5691 5694 5696 5699 5701 5704 5706 5708 5710 5711 5712 5714 5715 5716 5717 5717 5718 5718 5718 5718 5718 5718 5718 5717 5716 5715 5714 5713 5712 5710 5709 5707 5705 5703 5701 5698 5696
5667 5670 5673 5676 5679 5682 5685 5688 5691 5694 5696 5699 5701 5703 5705 5707 5708 5709 5710 5711 5712 5713 5713 5714 5714 5714 5714 5713 5713 5712 5711 5710 5709 5708 5707 5705 5703 5702 5700 5698 5696 5693 5691 5689
5666 5669 5672 5675 5678 5681 5684 5687 5689 5692 5694 5697 5699 5700 5702 5704 5705 5706 5707 5708 5708 5709 5709 5709 5709 5709 5709 5708 5707 5706 5705 5704 5703 5701 5700 5698 5696 5694 5692 5690 5688 5686 5684 5682
5666 5669 5672 5675 5677 5680 5683 5686 5688 5690 5693 5695 5697 5698 5700 5701 5702 5703 5704 5704 5705 5705 5705 5705 5704 5703 5703 5702 5701 5700 5699 5698 5696 5694 5692 5691 5689 5687 5685 5683 5681 5679 5677 5675
5667 5670 5672 5675 5677 5680 5683 5685 5687 5689 5691 5693 5695 5696 5697 5698 5699 5699 5700 5700 5700 5700 5700 5699 5698 5698 5697 5696 5694 5693 5692 5690 5689 5687 5685 5684 5682 5680 5678 5676 5674 5672 5670 5668
5668 5671 5673 5676 5678 5680 5683 5685 5686 5688 5690 5692 5693 5694 5695 5695 5696 5696 5696 5696 5695 5695 5694 5693 5692 5691 5690 5689 5688 5686 5685 5683 5681 5680 5678 5676 5674 5672 5671 5669 5667 5665 5663 5662